Change the Weather History Date:

Thursday, November 15, 2012

  Actual Average Record
Temperature  
Mean Temperature 36 °F -  
Max Temperature 57 °F 53 °F 68 °F (1966)
Min Temperature 16 °F 24 °F 5 °F (1956)
Degree Days  
Heating Degree Days 28    
Moisture  
Dew Point 23 °F    
Average Humidity 68    
Maximum Humidity 100    
Minimum Humidity 28    
Precipitation  
Precipitation 0.00 in - - ()
Sea Level Pressure  
Sea Level Pressure 30.15 in    
Wind  
Wind Speed 4 mph (SE)    
Max Wind Speed 8 mph    
Max Gust Speed -    
Visibility 7 miles    
Events Fog    
Averages and records for this station are not official NWS values.
T = Trace of Precipitation, MM = Missing Value Source: NWS Daily Summary

Daily Weather History Graph

Daily Weather History Graph

Search for Another Location

Airport or City:

Trip Planner

Search our weather history database for the weather conditions in past years. The results will help you decide how hot, cold, wet, or windy it might be!

Date:

Astronomy

Nov. 15, 2012 Rise Set
Actual Time 6:40 AM PST 4:37 PM PST
Civil Twilight 6:11 AM PST 5:06 PM PST
Nautical Twilight 5:38 AM PST 5:39 PM PST
Astronomical Twilight 5:06 AM PST 6:11 PM PST
Moon 8:41 AM PST (11/15) 6:34 PM PST (11/15)
Length of Visible Light 10h 55m
Length of Day
9h 57m
Waxing Crescent, 5% of the Moon is Illuminated
Nov 15
Waxing Crescent
Nov 20
First Quarter
Nov 28
Full
Dec 6
Last Quarter
Dec 13
New

Hourly Weather History & Observations

Time (PST) Temp. Windchill Dew Point Humidity Pressure Visibility Wind Dir Wind Speed Gust Speed Precip Events Conditions
12:53 AM 34.0 °F 27.2 °F 26.1 °F 73% 30.18 in 10.0 mi NE 8.1 mph - N/A   Clear
1:53 AM 32.0 °F 28.7 °F 25.0 °F 75% 30.18 in 10.0 mi NW 3.5 mph - N/A   Clear
2:53 AM 25.0 °F 19.3 °F 21.0 °F 85% 30.20 in 10.0 mi SW 4.6 mph - N/A   Clear
3:53 AM 23.0 °F 18.4 °F 21.0 °F 92% 30.20 in 10.0 mi SW 3.5 mph - N/A   Clear
4:53 AM 19.9 °F 14.9 °F 18.0 °F 92% 30.23 in 10.0 mi SW 3.5 mph - N/A   Clear
5:53 AM 21.0 °F 16.2 °F 18.0 °F 88% 30.24 in 10.0 mi WSW 3.5 mph - N/A   Clear
6:17 AM 16.0 °F 7.4 °F 14.0 °F 92% 30.19 in 1.5 mi South 5.8 mph - N/A   Clear
6:20 AM 17.1 °F 8.7 °F 15.1 °F 92% 30.19 in 1.0 mi South 5.8 mph - N/A   Mist
6:26 AM 19.0 °F 10.0 °F 18.0 °F 96% 30.19 in 0.2 mi SSE 6.9 mph - N/A Fog Light Freezing Fog
6:38 AM 19.9 °F 13.4 °F 19.9 °F 100% 30.18 in 0.8 mi ESE 4.6 mph - N/A   Mist
6:42 AM 19.9 °F 14.9 °F 18.0 °F 92% 30.18 in 1.2 mi ESE 3.5 mph - N/A   Partly Cloudy
6:53 AM 19.9 °F 14.9 °F 18.0 °F 92% 30.25 in 0.5 mi East 3.5 mph - N/A Fog Light Freezing Fog
7:14 AM 19.9 °F - 18.0 °F 92% 30.19 in 0.2 mi Calm Calm - N/A Fog Light Freezing Fog
7:22 AM 19.9 °F - 19.0 °F 96% 30.19 in 0.8 mi Calm Calm - N/A   Mist
7:24 AM 21.0 °F 16.2 °F 19.0 °F 92% 30.19 in 1.2 mi SE 3.5 mph - N/A   Scattered Clouds
7:27 AM 21.0 °F - 19.0 °F 92% 30.19 in 3.0 mi Calm Calm - N/A   Partly Cloudy
7:53 AM 27.0 °F - 25.0 °F 92% 30.26 in 10.0 mi Calm Calm - N/A   Clear
8:53 AM 39.9 °F - 30.9 °F 70% 30.25 in 10.0 mi Calm Calm - N/A   Clear
9:53 AM 46.0 °F 42.5 °F 34.0 °F 63% 30.22 in 10.0 mi NE 6.9 mph - N/A   Clear
10:53 AM 48.9 °F - 35.1 °F 59% 30.19 in 10.0 mi Calm Calm - N/A   Clear
11:53 AM 52.0 °F - 30.9 °F 45% 30.15 in 10.0 mi NE 3.5 mph - N/A   Clear
12:53 PM 55.0 °F - 30.0 °F 38% 30.09 in 10.0 mi North 5.8 mph - N/A   Clear
1:53 PM 57.0 °F - 28.0 °F 33% 30.07 in 10.0 mi Calm Calm - N/A   Clear
2:53 PM 57.0 °F - 24.1 °F 28% 30.07 in 10.0 mi Calm Calm - N/A   Clear
3:53 PM 55.9 °F - 24.1 °F 29% 30.06 in 10.0 mi NE 3.5 mph - N/A   Clear
4:53 PM 46.0 °F - 23.0 °F 40% 30.07 in 10.0 mi Calm Calm - N/A   Clear
5:53 PM 48.9 °F - 21.9 °F 35% 30.07 in 10.0 mi SW 3.5 mph - N/A   Clear
6:53 PM 44.1 °F 41.5 °F 23.0 °F 43% 30.09 in 10.0 mi SW 4.6 mph - N/A   Clear
7:53 PM 44.1 °F 42.5 °F 26.1 °F 49% 30.06 in 10.0 mi NE 3.5 mph - N/A   Partly Cloudy
8:53 PM 45.0 °F - 27.0 °F 49% 30.04 in 10.0 mi Calm Calm - N/A   Mostly Cloudy
9:53 PM 43.0 °F 41.3 °F 26.1 °F 51% 30.03 in 10.0 mi NNE 3.5 mph - N/A   Overcast
10:53 PM 45.0 °F - 25.0 °F 46% 30.01 in 10.0 mi Calm Calm - N/A   Overcast
11:53 PM 45.0 °F 43.5 °F 25.0 °F 46% 30.00 in 10.0 mi West 3.5 mph - N/A   Mostly Cloudy